Markkina, Finland

2:25 AM EEST on October 20, 2019 (GMT +0300)
Markkina

Weather History for 02081 - September, 2019

Change the Weather History Date:

Sunday, September 22, 2019

  Actual Average Record
Temperature  
Mean Temperature 34 °F -  
Max Temperature 43 °F - - ()
Min Temperature 24 °F - - ()
Degree Days  
Heating Degree Days 32    
Moisture  
Dew Point 27 °F    
Average Humidity 74    
Maximum Humidity 95    
Minimum Humidity 41    
Precipitation  
Precipitation 0.00 in - - ()
Sea Level Pressure  
Sea Level Pressure 30.14 in    
Wind  
Wind Speed 4 mph ()    
Max Wind Speed 13 mph    
Max Gust Speed -    
Visibility 16.1 miles    
Events Rain    
T = Trace of Precipitation, MM = Missing Value Source: Averaged Metar Reports

Daily Weather History Graph

Daily Weather History Graph

Search for Another Location

Airport or City:

Astronomy

Sep. 22, 2019 Rise Set
Actual Time 7:10 AM EEST 7:35 PM EEST
Civil Twilight 6:12 AM EEST 8:32 PM EEST
Nautical Twilight 4:59 AM EEST 9:44 PM EEST
Astronomical Twilight 3:24 AM EEST 11:16 PM EEST
Moon No Moon Rise No Moon Set
Length of Visible Light 14h 19m
Length of Day
12h 25m
Waning Gibbous, 47% of the Moon is Illuminated
Sep 22
Waning Gibbous
Sep 28
New
Oct 5
First Quarter
Oct 14
Full
Oct 21
Last Quarter

Hourly Weather History & Observations

Time (EEST) Temp. Dew Point Humidity Pressure Visibility Wind Dir Wind Speed Gust Speed Precip Events Conditions
12:00 AM 30 °F 26 °F 78% 29.99 in 31 mi NW 2.2 mph - -  
1:00 AM 30 °F 26 °F 77% 30.01 in 31 mi NNW 4.5 mph - -  
2:00 AM 28 °F 25 °F 85% 30.03 in 31 mi West 2.2 mph - -  
3:00 AM 25 °F 23 °F 90% 30.05 in 28 mi SSW 4.5 mph - -  
4:00 AM 28 °F 26 °F 88% 30.06 in 19 mi WNW 6.7 mph - -  
5:00 AM 25 °F 24 °F 95% 30.08 in 17 mi WNW 2.2 mph - -  
6:00 AM 27 °F 25 °F 91% 30.09 in 16 mi West 4.5 mph - -  
7:00 AM 26 °F 25 °F 93% 30.11 in 13 mi West 2.2 mph - -  
8:00 AM 28 °F 26 °F 88% 30.13 in 16 mi WNW 4.5 mph - -  
9:00 AM 31 °F 28 °F 84% 30.14 in 13 mi NW 4.5 mph - -  
11:00 AM 37 °F 29 °F 64% 30.16 in 19 mi WNW 6.7 mph - -  
1:00 PM 40 °F 29 °F 52% 30.17 in 31 mi NNW 11.2 mph - -  
2:00 PM 38 °F 32 °F 71% 30.19 in 22 mi NNW 8.9 mph - - Rain Light Rain Showers
3:00 PM 41 °F 29 °F 52% 30.18 in 31 mi NNW 11.2 mph - - Rain Rain
4:00 PM 42 °F 26 °F 41% 30.19 in 28 mi NNW 13.4 mph - -  
6:00 PM 40 °F 27 °F 47% 30.21 in 31 mi NNW 6.7 mph - -  
7:00 PM 37 °F 28 °F 59% 30.22 in 31 mi NW 4.5 mph - -  
8:00 PM 34 °F 26 °F 64% 30.23 in 31 mi NW 4.5 mph - -  
9:00 PM 30 °F 26 °F 78% 30.24 in 31 mi WNW 4.5 mph - -  
10:00 PM 32 °F 27 °F 76% 30.24 in 31 mi NNW 6.7 mph - -  
11:00 PM 29 °F 26 °F 82% 30.26 in 31 mi Calm Calm - -